Time,TemperatureF,DewpointF,PressureIn,WindDirection,WindDirectionDegrees,WindSpeedMPH,WindSpeedGustMPH,Humidity,HourlyPrecipIn,Conditions,Clouds,dailyrainin,SolarRadiationWatts/m^2,SoftwareType,DateUTC
2013-06-25 00:02:00,58.3,57.4,-100.00,NNW,331,0.0,3.0,97,0.02,,,0.16,0.0,meteohub,2013-06-25 07:02:00,
2013-06-25 00:07:00,58.1,57.0,-100.00,NNW,331,0.0,3.0,96,0.02,,,0.16,0.0,meteohub,2013-06-25 07:07:00,
2013-06-25 00:12:00,58.3,57.4,-100.00,NNW,331,0.0,3.0,97,0.02,,,0.00,0.0,meteohub,2013-06-25 07:12:00,
2013-06-25 00:17:00,58.3,57.4,-100.00,NNW,331,0.0,1.0,97,0.02,,,0.00,0.0,meteohub,2013-06-25 07:17:00,
2013-06-25 00:23:00,58.5,57.6,-100.00,NNW,331,0.0,1.0,97,0.02,,,0.00,0.0,meteohub,2013-06-25 07:23:00,
2013-06-25 00:29:00,58.5,57.4,-100.00,NNW,331,0.0,1.0,96,0.02,,,0.00,0.0,meteohub,2013-06-25 07:29:00,
2013-06-25 00:35:00,58.5,57.6,-100.00,NNW,331,0.0,0.0,97,0.02,,,0.00,0.0,meteohub,2013-06-25 07:35:00,
2013-06-25 00:42:00,58.5,57.6,-100.00,NNW,331,0.0,0.0,97,0.02,,,0.01,0.0,meteohub,2013-06-25 07:42:00,
2013-06-25 00:47:00,58.5,57.6,-100.00,NNW,331,0.0,0.0,97,0.02,,,0.01,0.0,meteohub,2013-06-25 07:47:00,
2013-06-25 00:52:00,58.5,57.6,-100.00,NNW,331,0.0,0.0,97,0.01,,,0.01,0.0,meteohub,2013-06-25 07:52:00,
2013-06-25 00:57:00,58.5,57.6,-100.00,NNW,331,0.0,0.0,97,0.01,,,0.01,0.0,meteohub,2013-06-25 07:57:00,
2013-06-25 01:02:00,58.5,57.6,-100.00,NNW,331,0.0,0.0,97,0.02,,,0.01,0.0,meteohub,2013-06-25 08:02:00,
2013-06-25 01:07:00,58.3,57.4,-100.00,NNW,331,0.0,0.0,97,0.02,,,0.01,0.0,meteohub,2013-06-25 08:07:00,
2013-06-25 01:12:00,58.3,57.4,-100.00,NNW,331,0.0,1.0,97,0.02,,,0.02,0.0,meteohub,2013-06-25 08:12:00,
2013-06-25 01:18:00,58.5,57.6,-100.00,NNW,331,0.0,1.0,97,0.02,,,0.02,0.0,meteohub,2013-06-25 08:18:00,
2013-06-25 01:25:00,58.5,57.6,-100.00,NNW,331,0.0,1.0,97,0.02,,,0.02,0.0,meteohub,2013-06-25 08:25:00,
2013-06-25 01:31:00,58.3,57.4,-100.00,NNW,331,0.0,0.0,97,0.01,,,0.02,0.0,meteohub,2013-06-25 08:31:00,
2013-06-25 01:37:00,58.3,57.4,-100.00,NNW,331,0.0,0.0,97,0.02,,,0.02,0.0,meteohub,2013-06-25 08:37:00,
2013-06-25 01:42:00,58.3,57.4,-100.00,NNW,331,0.0,0.0,97,0.02,,,0.03,0.0,meteohub,2013-06-25 08:42:00,
2013-06-25 01:47:00,58.3,57.4,-100.00,NNW,331,0.0,0.0,97,0.02,,,0.03,0.0,meteohub,2013-06-25 08:47:00,
2013-06-25 01:52:00,58.3,57.4,-100.00,NNW,331,0.0,0.0,97,0.02,,,0.03,0.0,meteohub,2013-06-25 08:52:00,
2013-06-25 01:57:00,58.3,57.4,-100.00,NNW,331,0.0,0.0,97,0.02,,,0.03,0.0,meteohub,2013-06-25 08:57:00,
2013-06-25 02:02:00,58.3,57.4,-100.00,NNW,331,0.0,0.0,97,0.02,,,0.03,0.0,meteohub,2013-06-25 09:02:00,
2013-06-25 02:07:00,58.3,57.4,-100.00,NNW,331,0.0,0.0,97,0.02,,,0.03,0.0,meteohub,2013-06-25 09:07:00,
2013-06-25 02:12:00,58.5,57.6,-100.00,NNW,331,0.0,0.0,97,0.02,,,0.03,0.0,meteohub,2013-06-25 09:12:00,
2013-06-25 02:17:00,58.3,57.4,-100.00,NNW,331,0.0,0.0,97,0.02,,,0.04,0.0,meteohub,2013-06-25 09:17:00,
2013-06-25 02:22:00,58.3,57.4,-100.00,NNW,331,0.0,0.0,97,0.02,,,0.04,0.0,meteohub,2013-06-25 09:22:00,
2013-06-25 02:27:00,58.3,57.4,-100.00,NNW,331,0.0,0.0,97,0.02,,,0.04,0.0,meteohub,2013-06-25 09:27:00,
2013-06-25 02:32:00,58.5,57.6,-100.00,NNW,331,0.0,0.0,97,0.02,,,0.04,0.0,meteohub,2013-06-25 09:32:00,
2013-06-25 02:37:00,58.5,57.6,-100.00,NNW,331,0.0,0.0,97,0.02,,,0.05,0.0,meteohub,2013-06-25 09:37:00,
2013-06-25 02:42:00,58.5,57.6,-100.00,NNW,331,0.0,0.0,97,0.02,,,0.05,0.0,meteohub,2013-06-25 09:42:00,
2013-06-25 02:47:00,58.5,57.6,-100.00,NNW,331,0.0,0.0,97,0.02,,,0.05,0.0,meteohub,2013-06-25 09:47:00,
2013-06-25 02:52:00,58.5,57.6,-100.00,NNW,331,0.0,0.0,97,0.02,,,0.05,0.0,meteohub,2013-06-25 09:52:00,
2013-06-25 02:57:00,58.3,57.4,-100.00,NNW,331,0.0,0.0,97,0.02,,,0.05,0.0,meteohub,2013-06-25 09:57:00,
2013-06-25 03:02:00,58.3,57.4,-100.00,NNW,331,0.0,1.0,97,0.02,,,0.05,0.0,meteohub,2013-06-25 10:02:00,
2013-06-25 03:07:00,58.3,57.4,-100.00,NNW,331,0.0,1.0,97,0.02,,,0.05,0.0,meteohub,2013-06-25 10:07:00,
2013-06-25 03:12:00,58.3,57.4,-100.00,NNW,331,0.0,1.0,97,0.02,,,0.06,0.0,meteohub,2013-06-25 10:12:00,
2013-06-25 03:17:00,58.3,57.4,-100.00,NNW,331,0.0,1.0,97,0.02,,,0.06,0.0,meteohub,2013-06-25 10:17:00,
2013-06-25 03:22:00,58.3,57.4,-100.00,NNW,331,0.0,1.0,97,0.02,,,0.06,0.0,meteohub,2013-06-25 10:22:00,
2013-06-25 03:27:00,58.3,57.4,-100.00,NNW,331,0.0,1.0,97,0.02,,,0.06,0.0,meteohub,2013-06-25 10:27:00,
2013-06-25 03:32:00,58.3,57.4,-100.00,NNW,331,0.0,1.0,97,0.02,,,0.06,0.0,meteohub,2013-06-25 10:32:00,
2013-06-25 03:37:00,58.3,57.4,-100.00,NNW,331,0.0,1.0,97,0.02,,,0.07,0.0,meteohub,2013-06-25 10:37:00,
2013-06-25 03:42:00,58.3,57.4,-100.00,NNW,331,0.0,0.0,97,0.02,,,0.07,0.0,meteohub,2013-06-25 10:42:00,
2013-06-25 03:47:00,58.3,57.4,-100.00,NNW,331,0.0,0.0,97,0.02,,,0.07,0.0,meteohub,2013-06-25 10:47:00,
2013-06-25 03:52:00,58.5,57.6,-100.00,NNW,331,0.0,1.0,97,0.02,,,0.07,0.0,meteohub,2013-06-25 10:52:00,
2013-06-25 03:57:00,58.5,57.6,-100.00,NNW,331,0.0,1.0,97,0.02,,,0.07,0.0,meteohub,2013-06-25 10:57:00,
2013-06-25 04:02:00,58.5,57.6,-100.00,NNW,331,0.0,1.0,97,0.03,,,0.07,0.0,meteohub,2013-06-25 11:02:00,
2013-06-25 04:07:00,58.5,57.6,-100.00,NNW,331,0.0,1.0,97,0.03,,,0.07,0.0,meteohub,2013-06-25 11:07:00,
2013-06-25 04:12:00,58.5,57.6,-100.00,NNW,331,1.0,1.0,97,0.02,,,0.08,0.0,meteohub,2013-06-25 11:12:00,
2013-06-25 04:17:00,58.3,57.4,-100.00,NNW,331,0.0,1.0,97,0.02,,,0.08,0.0,meteohub,2013-06-25 11:17:00,
2013-06-25 04:22:00,58.3,57.4,-100.00,NNW,331,0.0,2.0,97,0.02,,,0.08,0.0,meteohub,2013-06-25 11:22:00,
2013-06-25 04:27:00,58.5,57.6,-100.00,NNW,331,1.0,2.0,97,0.02,,,0.09,0.0,meteohub,2013-06-25 11:27:00,
2013-06-25 04:32:00,58.5,57.6,-100.00,NNW,331,0.0,1.0,97,0.03,,,0.09,0.0,meteohub,2013-06-25 11:32:00,
2013-06-25 04:37:00,58.5,57.6,-100.00,NNW,331,0.0,1.0,97,0.03,,,0.09,0.0,meteohub,2013-06-25 11:37:00,
2013-06-25 04:42:00,58.5,57.6,-100.00,NNW,331,0.0,1.0,97,0.02,,,0.09,0.0,meteohub,2013-06-25 11:42:00,
2013-06-25 04:47:00,58.5,57.6,-100.00,NNW,331,0.0,1.0,97,0.02,,,0.09,0.0,meteohub,2013-06-25 11:47:00,
2013-06-25 04:52:00,58.5,57.6,-100.00,NNW,331,0.0,1.0,97,0.03,,,0.09,0.0,meteohub,2013-06-25 11:52:00,
2013-06-25 04:58:00,58.5,57.6,-100.00,NNW,331,0.0,1.0,97,0.03,,,0.09,0.0,meteohub,2013-06-25 11:58:00,
2013-06-25 05:04:00,58.6,57.7,-100.00,NNW,331,0.0,1.0,97,0.03,,,0.10,0.0,meteohub,2013-06-25 12:04:00,
2013-06-25 05:10:00,58.5,57.6,-100.00,NNW,331,0.0,1.0,97,0.02,,,0.10,0.0,meteohub,2013-06-25 12:10:00,
2013-06-25 05:17:00,58.5,57.6,-100.00,NNW,331,0.0,0.0,97,0.02,,,0.10,0.0,meteohub,2013-06-25 12:17:00,
2013-06-25 05:22:00,58.5,57.6,-100.00,NNW,331,0.0,0.0,97,0.02,,,0.11,0.0,meteohub,2013-06-25 12:22:00,
2013-06-25 05:27:00,58.5,57.6,-100.00,NNW,331,0.0,0.0,97,0.02,,,0.11,0.0,meteohub,2013-06-25 12:27:00,
2013-06-25 05:32:00,58.6,57.7,-100.00,NNW,331,0.0,1.0,97,0.02,,,0.11,0.0,meteohub,2013-06-25 12:32:00,
2013-06-25 05:37:00,58.6,57.7,-100.00,NNW,331,0.0,1.0,97,0.02,,,0.11,0.0,meteohub,2013-06-25 12:37:00,
2013-06-25 05:42:00,58.6,57.7,-100.00,NNW,331,0.0,1.0,97,0.02,,,0.12,0.0,meteohub,2013-06-25 12:42:00,
2013-06-25 05:47:00,58.6,57.7,-100.00,NNW,331,0.0,1.0,97,0.02,,,0.12,0.0,meteohub,2013-06-25 12:47:00,
2013-06-25 05:52:00,58.6,57.7,-100.00,NNW,331,0.0,1.0,97,0.02,,,0.12,0.0,meteohub,2013-06-25 12:52:00,
2013-06-25 05:57:00,58.6,57.7,-100.00,NNW,331,0.0,1.0,97,0.02,,,0.12,0.0,meteohub,2013-06-25 12:57:00,
2013-06-25 06:02:00,58.6,57.7,-100.00,NNW,331,0.0,1.0,97,0.02,,,0.13,0.0,meteohub,2013-06-25 13:02:00,
2013-06-25 06:07:00,58.6,57.7,-100.00,NNW,331,0.0,1.0,97,0.02,,,0.13,0.0,meteohub,2013-06-25 13:07:00,
2013-06-25 06:12:00,58.8,57.9,-100.00,NNW,331,0.0,0.0,97,0.03,,,0.13,5.0,meteohub,2013-06-25 13:12:00,
2013-06-25 06:18:00,58.6,57.7,-100.00,NNW,331,0.0,0.0,97,0.03,,,0.13,0.0,meteohub,2013-06-25 13:18:00,
2013-06-25 06:25:00,58.8,57.9,-100.00,NNW,331,0.0,0.0,97,0.03,,,0.14,7.0,meteohub,2013-06-25 13:25:00,
2013-06-25 06:31:00,58.8,58.3,-100.00,NNW,331,0.0,0.0,98,0.03,,,0.14,18.0,meteohub,2013-06-25 13:31:00,
2013-06-25 06:37:00,59.0,58.5,-100.00,NNW,331,0.0,1.0,98,0.03,,,0.14,16.0,meteohub,2013-06-25 13:37:00,
2013-06-25 06:42:00,59.2,58.6,-100.00,NNW,331,0.0,1.0,98,0.03,,,0.14,16.0,meteohub,2013-06-25 13:42:00,
2013-06-25 06:47:00,59.2,58.6,-100.00,NNW,331,0.0,1.0,98,0.03,,,0.14,19.0,meteohub,2013-06-25 13:47:00,
2013-06-25 06:52:00,59.2,58.6,-100.00,NNW,331,0.0,1.0,98,0.03,,,0.15,21.0,meteohub,2013-06-25 13:52:00,
2013-06-25 06:57:00,59.2,58.6,-100.00,NNW,331,0.0,1.0,98,0.03,,,0.15,23.0,meteohub,2013-06-25 13:57:00,
2013-06-25 07:02:00,59.4,58.8,-100.00,NNW,331,0.0,0.0,98,0.03,,,0.15,25.0,meteohub,2013-06-25 14:02:00,
2013-06-25 07:07:00,59.4,58.8,-100.00,NNW,331,0.0,0.0,98,0.03,,,0.15,26.0,meteohub,2013-06-25 14:07:00,
2013-06-25 07:12:00,59.4,58.8,-100.00,NNW,331,0.0,0.0,98,0.03,,,0.16,28.0,meteohub,2013-06-25 14:12:00,
2013-06-25 07:17:00,59.5,59.0,-100.00,NNW,331,0.0,0.0,98,0.03,,,0.16,26.0,meteohub,2013-06-25 14:17:00,
2013-06-25 07:22:00,59.5,59.0,-100.00,NNW,331,0.0,0.0,98,0.02,,,0.16,30.0,meteohub,2013-06-25 14:22:00,
2013-06-25 07:27:00,59.5,59.0,-100.00,NNW,331,0.0,0.0,98,0.02,,,0.16,33.0,meteohub,2013-06-25 14:27:00,
2013-06-25 07:32:00,59.7,59.2,-100.00,NNW,331,0.0,0.0,98,0.02,,,0.17,51.0,meteohub,2013-06-25 14:32:00,
2013-06-25 07:37:00,59.7,59.2,-100.00,NNW,331,0.0,0.0,98,0.02,,,0.17,39.0,meteohub,2013-06-25 14:37:00,
2013-06-25 07:42:00,59.7,59.2,-100.00,NNW,331,0.0,0.0,98,0.03,,,0.17,76.0,meteohub,2013-06-25 14:42:00,
2013-06-25 07:47:00,59.7,59.2,-100.00,NNW,331,0.0,0.0,98,0.03,,,0.17,69.0,meteohub,2013-06-25 14:47:00,
2013-06-25 07:52:00,59.7,59.2,-100.00,NNW,331,0.0,0.0,98,0.03,,,0.18,72.0,meteohub,2013-06-25 14:52:00,
2013-06-25 07:57:00,59.7,59.2,-100.00,NNW,331,0.0,0.0,98,0.03,,,0.18,62.0,meteohub,2013-06-25 14:57:00,
2013-06-25 08:02:00,59.7,59.2,-100.00,NNW,331,0.0,1.0,98,0.03,,,0.18,58.0,meteohub,2013-06-25 15:02:00,
2013-06-25 08:07:00,59.7,59.2,-100.00,NNW,331,0.0,1.0,98,0.03,,,0.18,69.0,meteohub,2013-06-25 15:07:00,
2013-06-25 08:12:00,59.9,59.4,-100.00,NNW,331,0.0,1.0,98,0.03,,,0.19,86.0,meteohub,2013-06-25 15:12:00,
2013-06-25 08:18:00,60.1,59.5,-100.00,NNW,331,0.0,1.0,98,0.03,,,0.19,84.0,meteohub,2013-06-25 15:18:00,
2013-06-25 08:24:00,59.9,59.4,-100.00,NNW,331,0.0,0.0,98,0.03,,,0.19,69.0,meteohub,2013-06-25 15:24:00,
2013-06-25 08:30:00,59.9,59.4,-100.00,NNW,331,0.0,0.0,98,0.03,,,0.19,60.0,meteohub,2013-06-25 15:30:00,
2013-06-25 08:36:00,60.1,59.5,-100.00,NNW,331,0.0,0.0,98,0.03,,,0.20,69.0,meteohub,2013-06-25 15:36:00,
2013-06-25 08:42:00,60.3,59.7,-100.00,NNW,331,0.0,1.0,98,0.03,,,0.20,70.0,meteohub,2013-06-25 15:42:00,
2013-06-25 08:47:00,60.1,59.5,-100.00,NNW,331,0.0,1.0,98,0.03,,,0.20,70.0,meteohub,2013-06-25 15:47:00,
2013-06-25 08:52:00,60.3,59.7,-100.00,NNW,331,0.0,1.0,98,0.03,,,0.21,74.0,meteohub,2013-06-25 15:52:00,
2013-06-25 08:57:00,60.1,59.5,-100.00,NNW,331,0.0,1.0,98,0.03,,,0.21,90.0,meteohub,2013-06-25 15:57:00,
2013-06-25 09:02:00,60.1,59.5,-100.00,NNW,331,0.0,0.0,98,0.04,,,0.21,72.0,meteohub,2013-06-25 16:02:00,
2013-06-25 09:07:00,60.3,59.7,-100.00,NNW,331,0.0,0.0,98,0.04,,,0.21,74.0,meteohub,2013-06-25 16:07:00,
2013-06-25 09:12:00,60.3,59.7,-100.00,NNW,331,0.0,0.0,98,0.04,,,0.22,91.0,meteohub,2013-06-25 16:12:00,
2013-06-25 09:17:00,60.3,59.7,-100.00,NNW,331,0.0,0.0,98,0.04,,,0.22,88.0,meteohub,2013-06-25 16:17:00,
2013-06-25 09:22:00,60.4,59.9,-100.00,NNW,331,0.0,1.0,98,0.04,,,0.22,107.0,meteohub,2013-06-25 16:22:00,
2013-06-25 09:27:00,60.4,59.9,-100.00,NNW,331,0.0,1.0,98,0.04,,,0.22,123.0,meteohub,2013-06-25 16:27:00,
2013-06-25 09:32:00,60.6,60.1,-100.00,NNW,331,0.0,1.0,98,0.04,,,0.24,113.0,meteohub,2013-06-25 16:32:00,
2013-06-25 09:37:00,60.6,60.1,-100.00,NNW,331,0.0,1.0,98,0.04,,,0.24,139.0,meteohub,2013-06-25 16:37:00,
2013-06-25 09:42:00,60.6,60.1,-100.00,NNW,331,0.0,0.0,98,0.04,,,0.24,146.0,meteohub,2013-06-25 16:42:00,
2013-06-25 09:47:00,60.6,60.1,-100.00,NNW,331,0.0,0.0,98,0.04,,,0.24,144.0,meteohub,2013-06-25 16:47:00,
2013-06-25 09:52:00,60.6,60.1,-100.00,NNW,331,0.0,0.0,98,0.04,,,0.25,128.0,meteohub,2013-06-25 16:52:00,
2013-06-25 09:57:00,60.4,59.9,-100.00,NNW,331,2.0,0.0,98,0.04,,,0.25,178.0,meteohub,2013-06-25 16:57:00,
2013-06-25 10:02:00,60.6,60.1,-100.00,NNW,331,0.0,2.0,98,0.03,,,0.25,176.0,meteohub,2013-06-25 17:02:00,
2013-06-25 10:07:00,60.6,60.1,-100.00,NNW,331,1.0,2.0,98,0.03,,,0.25,185.0,meteohub,2013-06-25 17:07:00,
2013-06-25 10:12:00,60.4,59.9,-100.00,NNW,330,0.0,2.0,98,0.03,,,0.26,146.0,meteohub,2013-06-25 17:12:00,
2013-06-25 10:17:00,60.4,59.9,-100.00,NNW,330,1.0,2.0,98,0.03,,,0.26,134.0,meteohub,2013-06-25 17:17:00,
2013-06-25 10:22:00,60.6,60.1,-100.00,NNW,330,1.0,4.0,98,0.03,,,0.26,206.0,meteohub,2013-06-25 17:22:00,
2013-06-25 10:27:00,60.8,60.3,-100.00,NNW,330,1.0,4.0,98,0.03,,,0.26,200.0,meteohub,2013-06-25 17:27:00,
2013-06-25 10:32:00,60.6,59.7,-100.00,SW,236,1.0,4.0,97,0.03,,,0.27,172.0,meteohub,2013-06-25 17:32:00,
2013-06-25 10:37:00,60.6,59.7,-100.00,NNW,329,2.0,4.0,97,0.03,,,0.27,174.0,meteohub,2013-06-25 17:37:00,
2013-06-25 10:42:00,60.4,59.5,-100.00,NW,326,0.0,6.0,97,0.03,,,0.27,216.0,meteohub,2013-06-25 17:42:00,
2013-06-25 10:47:00,60.8,60.3,-100.00,NW,326,0.0,6.0,98,0.03,,,0.27,197.0,meteohub,2013-06-25 17:47:00,
2013-06-25 10:52:00,60.6,60.1,-100.00,WNW,285,4.0,6.0,98,0.03,,,0.28,167.0,meteohub,2013-06-25 17:52:00,
2013-06-25 10:57:00,60.6,59.7,-100.00,NW,309,0.0,6.0,97,0.03,,,0.28,192.0,meteohub,2013-06-25 17:57:00,
2013-06-25 11:02:00,60.6,59.7,-100.00,WNW,296,1.0,6.0,97,0.03,,,0.29,174.0,meteohub,2013-06-25 18:02:00,
2013-06-25 11:07:00,60.6,59.7,-100.00,West,267,0.0,6.0,97,0.03,,,0.29,214.0,meteohub,2013-06-25 18:07:00,
2013-06-25 11:12:00,60.8,59.9,-100.00,West,278,2.0,6.0,97,0.03,,,0.29,179.0,meteohub,2013-06-25 18:12:00,
2013-06-25 11:17:00,60.6,59.7,-100.00,WNW,297,4.0,6.0,97,0.03,,,0.30,183.0,meteohub,2013-06-25 18:17:00,
2013-06-25 11:22:00,61.0,60.1,-100.00,South,180,4.0,8.0,97,0.04,,,0.30,211.0,meteohub,2013-06-25 18:22:00,
2013-06-25 11:27:00,61.2,60.3,-100.00,WSW,240,2.0,8.0,97,0.04,,,0.30,239.0,meteohub,2013-06-25 18:27:00,
2013-06-25 11:32:00,61.2,60.3,-100.00,WNW,300,5.0,8.0,97,0.04,,,0.30,251.0,meteohub,2013-06-25 18:32:00,
2013-06-25 11:37:00,61.0,60.1,-100.00,West,265,6.0,7.0,97,0.04,,,0.30,260.0,meteohub,2013-06-25 18:37:00,
2013-06-25 11:42:00,61.2,60.3,-100.00,WNW,290,0.0,7.0,97,0.04,,,0.30,281.0,meteohub,2013-06-25 18:42:00,
2013-06-25 11:47:00,61.0,60.1,-100.00,SW,222,5.0,7.0,97,0.04,,,0.30,323.0,meteohub,2013-06-25 18:47:00,
2013-06-25 11:52:00,61.2,60.3,-100.00,WNW,293,3.0,7.0,97,0.04,,,0.32,220.0,meteohub,2013-06-25 18:52:00,
2013-06-25 11:59:00,61.2,60.3,-100.00,WNW,289,4.0,7.0,97,0.04,,,0.32,165.0,meteohub,2013-06-25 18:59:00,
2013-06-25 12:05:00,61.2,60.3,-100.00,NNW,334,1.0,7.0,97,0.04,,,0.32,181.0,meteohub,2013-06-25 19:05:00,
2013-06-25 12:11:00,61.2,60.3,-100.00,NW,313,2.0,7.0,97,0.04,,,0.33,204.0,meteohub,2013-06-25 19:11:00,
2013-06-25 12:17:00,61.0,59.9,-100.00,NW,309,4.0,6.0,96,0.04,,,0.33,163.0,meteohub,2013-06-25 19:17:00,
2013-06-25 12:22:00,60.8,59.7,-100.00,WSW,246,0.0,6.0,96,0.04,,,0.34,158.0,meteohub,2013-06-25 19:22:00,
2013-06-25 12:27:00,61.0,59.9,-100.00,WSW,254,2.0,6.0,96,0.04,,,0.34,200.0,meteohub,2013-06-25 19:27:00,
2013-06-25 12:32:00,60.6,59.5,-100.00,WSW,249,3.0,8.0,96,0.04,,,0.34,220.0,meteohub,2013-06-25 19:32:00,
2013-06-25 12:38:00,60.6,59.5,-100.00,WSW,254,0.0,8.0,96,0.04,,,0.34,174.0,meteohub,2013-06-25 19:38:00,
2013-06-25 12:44:00,61.0,60.1,-100.00,NW,312,0.0,8.0,97,0.04,,,0.35,204.0,meteohub,2013-06-25 19:44:00,
2013-06-25 12:50:00,60.8,59.9,-100.00,NNW,335,2.0,7.0,97,0.04,,,0.35,188.0,meteohub,2013-06-25 19:50:00,
2013-06-25 12:56:00,60.6,59.7,-100.00,NW,308,1.0,7.0,97,0.04,,,0.36,218.0,meteohub,2013-06-25 19:56:00,
2013-06-25 13:02:00,61.0,60.1,-100.00,SW,219,4.0,5.0,97,0.03,,,0.36,204.0,meteohub,2013-06-25 20:02:00,
2013-06-25 13:07:00,61.0,60.1,-100.00,WSW,238,0.0,5.0,97,0.03,,,0.36,176.0,meteohub,2013-06-25 20:07:00,
2013-06-25 13:12:00,61.2,60.3,-100.00,NW,323,0.0,5.0,97,0.04,,,0.37,202.0,meteohub,2013-06-25 20:12:00,
2013-06-25 13:17:00,61.3,60.4,-100.00,NW,323,1.0,5.0,97,0.04,,,0.37,190.0,meteohub,2013-06-25 20:17:00,
2013-06-25 13:22:00,61.0,59.9,-100.00,WSW,254,1.0,5.0,96,0.04,,,0.38,183.0,meteohub,2013-06-25 20:22:00,
2013-06-25 13:27:00,60.6,59.5,-100.00,WNW,288,1.0,5.0,96,0.04,,,0.38,171.0,meteohub,2013-06-25 20:27:00,
2013-06-25 13:33:00,61.2,60.3,-100.00,WSW,240,4.0,7.0,97,0.04,,,0.38,227.0,meteohub,2013-06-25 20:33:00,
2013-06-25 13:39:00,61.0,60.1,-100.00,NW,308,4.0,7.0,97,0.03,,,0.38,299.0,meteohub,2013-06-25 20:39:00,
2013-06-25 13:45:00,61.0,60.1,-100.00,NW,321,4.0,7.0,97,0.03,,,0.39,290.0,meteohub,2013-06-25 20:45:00,
2013-06-25 13:52:00,61.5,60.6,-100.00,NW,321,3.0,6.0,97,0.04,,,0.39,278.0,meteohub,2013-06-25 20:52:00,
2013-06-25 13:57:00,61.3,60.4,-100.00,NW,324,2.0,6.0,97,0.04,,,0.39,269.0,meteohub,2013-06-25 20:57:00,
2013-06-25 14:02:00,61.5,60.6,-100.00,WNW,294,0.0,6.0,97,0.04,,,0.40,257.0,meteohub,2013-06-25 21:02:00,
2013-06-25 14:07:00,61.3,60.3,-100.00,WSW,240,1.0,6.0,96,0.04,,,0.40,279.0,meteohub,2013-06-25 21:07:00,
2013-06-25 14:12:00,61.5,60.6,-100.00,SW,219,3.0,9.0,97,0.03,,,0.40,257.0,meteohub,2013-06-25 21:12:00,
2013-06-25 14:17:00,61.9,61.0,-100.00,NNW,328,5.0,9.0,97,0.03,,,0.41,297.0,meteohub,2013-06-25 21:17:00,
2013-06-25 14:22:00,62.1,61.2,-100.00,West,260,0.0,9.0,97,0.04,,,0.41,285.0,meteohub,2013-06-25 21:22:00,
2013-06-25 14:27:00,61.9,61.0,-100.00,SW,234,1.0,9.0,97,0.04,,,0.41,236.0,meteohub,2013-06-25 21:27:00,
2013-06-25 14:32:00,61.9,61.0,-100.00,West,263,2.0,7.0,97,0.04,,,0.41,197.0,meteohub,2013-06-25 21:32:00,
2013-06-25 14:37:00,62.1,61.2,-100.00,NNW,341,4.0,7.0,97,0.04,,,0.42,237.0,meteohub,2013-06-25 21:37:00,
2013-06-25 14:42:00,62.1,61.2,-100.00,WSW,239,5.0,7.0,97,0.03,,,0.42,183.0,meteohub,2013-06-25 21:42:00,
2013-06-25 14:47:00,62.1,61.2,-100.00,West,268,2.0,7.0,97,0.03,,,0.42,183.0,meteohub,2013-06-25 21:47:00,
2013-06-25 14:52:00,62.1,61.2,-100.00,West,267,0.0,6.0,97,0.04,,,0.42,181.0,meteohub,2013-06-25 21:52:00,
2013-06-25 14:57:00,62.2,61.3,-100.00,WSW,250,0.0,6.0,97,0.04,,,0.43,146.0,meteohub,2013-06-25 21:57:00,
2013-06-25 15:02:00,62.1,61.0,-100.00,SSW,210,0.0,5.0,96,0.03,,,0.43,142.0,meteohub,2013-06-25 22:02:00,
2013-06-25 15:07:00,61.7,60.6,-100.00,SW,232,3.0,5.0,96,0.03,,,0.43,160.0,meteohub,2013-06-25 22:07:00,
2013-06-25 15:12:00,61.5,60.4,-100.00,SW,224,1.0,5.0,96,0.04,,,0.44,127.0,meteohub,2013-06-25 22:12:00,
2013-06-25 15:17:00,62.1,61.2,-100.00,WSW,248,1.0,5.0,97,0.04,,,0.44,116.0,meteohub,2013-06-25 22:17:00,
2013-06-25 15:22:00,61.9,61.0,-100.00,WSW,247,4.0,5.0,97,0.03,,,0.44,107.0,meteohub,2013-06-25 22:22:00,
2013-06-25 15:27:00,61.9,60.8,-100.00,WNW,286,0.0,5.0,96,0.03,,,0.45,142.0,meteohub,2013-06-25 22:27:00,
2013-06-25 15:32:00,61.9,61.0,-100.00,SW,233,2.0,5.0,97,0.03,,,0.45,141.0,meteohub,2013-06-25 22:32:00,
2013-06-25 15:37:00,62.1,61.2,-100.00,SW,232,2.0,5.0,97,0.03,,,0.45,185.0,meteohub,2013-06-25 22:37:00,
2013-06-25 15:42:00,62.1,61.2,-100.00,SW,232,0.0,5.0,97,0.03,,,0.45,186.0,meteohub,2013-06-25 22:42:00,
2013-06-25 15:47:00,62.2,61.3,-100.00,SW,232,0.0,5.0,97,0.03,,,0.46,162.0,meteohub,2013-06-25 22:47:00,
2013-06-25 15:52:00,62.4,61.5,-100.00,SW,232,0.0,3.0,97,0.03,,,0.46,165.0,meteohub,2013-06-25 22:52:00,
2013-06-25 15:57:00,62.2,61.3,-100.00,West,265,0.0,3.0,97,0.03,,,0.46,139.0,meteohub,2013-06-25 22:57:00,
2013-06-25 16:02:00,62.2,61.3,-100.00,West,265,0.0,4.0,97,0.03,,,0.46,130.0,meteohub,2013-06-25 23:02:00,
2013-06-25 16:07:00,62.4,61.5,-100.00,West,265,0.0,4.0,97,0.03,,,0.46,125.0,meteohub,2013-06-25 23:07:00,
2013-06-25 16:12:00,62.4,61.5,-100.00,West,265,0.0,4.0,97,0.03,,,0.47,102.0,meteohub,2013-06-25 23:12:00,
2013-06-25 16:17:00,62.2,61.3,-100.00,West,265,0.0,1.0,97,0.03,,,0.47,105.0,meteohub,2013-06-25 23:17:00,
2013-06-25 16:22:00,62.2,61.3,-100.00,NW,317,0.0,1.0,97,0.03,,,0.48,120.0,meteohub,2013-06-25 23:22:00,
2013-06-25 16:28:00,62.1,61.2,-100.00,NW,317,1.0,4.0,97,0.03,,,0.48,116.0,meteohub,2013-06-25 23:28:00,
2013-06-25 16:34:00,62.1,61.2,-100.00,WNW,295,0.0,4.0,97,0.03,,,0.48,118.0,meteohub,2013-06-25 23:34:00,
2013-06-25 16:40:00,62.1,61.2,-100.00,WNW,294,0.0,4.0,97,0.03,,,0.48,97.0,meteohub,2013-06-25 23:40:00,
2013-06-25 16:46:00,62.1,61.2,-100.00,WNW,294,0.0,4.0,97,0.03,,,0.49,83.0,meteohub,2013-06-25 23:46:00,
2013-06-25 16:52:00,62.1,61.2,-100.00,WNW,294,1.0,3.0,97,0.03,,,0.49,95.0,meteohub,2013-06-25 23:52:00,
2013-06-25 16:57:00,62.1,61.2,-100.00,WNW,294,0.0,3.0,97,0.03,,,0.49,125.0,meteohub,2013-06-25 23:57:00,
2013-06-25 17:02:00,62.2,61.3,-100.00,WNW,294,0.0,3.0,97,0.03,,,0.50,141.0,meteohub,2013-06-26 00:02:00,
2013-06-25 17:07:00,62.2,61.3,-100.00,WNW,290,3.0,3.0,97,0.03,,,0.50,137.0,meteohub,2013-06-26 00:07:00,
2013-06-25 17:13:00,62.2,61.3,-100.00,WNW,288,0.0,3.0,97,0.03,,,0.50,123.0,meteohub,2013-06-26 00:13:00,
2013-06-25 17:19:00,62.1,61.2,-100.00,WNW,288,0.0,3.0,97,0.03,,,0.50,128.0,meteohub,2013-06-26 00:19:00,
2013-06-25 17:25:00,62.2,61.3,-100.00,WNW,288,0.0,3.0,97,0.03,,,0.50,125.0,meteohub,2013-06-26 00:25:00,
2013-06-25 17:31:00,62.2,61.3,-100.00,WNW,288,0.0,2.0,97,0.03,,,0.51,104.0,meteohub,2013-06-26 00:31:00,
2013-06-25 17:37:00,62.4,61.5,-100.00,WNW,288,0.0,2.0,97,0.03,,,0.51,93.0,meteohub,2013-06-26 00:37:00,
2013-06-25 17:42:00,62.4,61.5,-100.00,WNW,288,0.0,2.0,97,0.03,,,0.52,84.0,meteohub,2013-06-26 00:42:00,
2013-06-25 17:48:00,62.4,61.5,-100.00,WNW,288,0.0,1.0,97,0.03,,,0.52,86.0,meteohub,2013-06-26 00:48:00,
2013-06-25 17:54:00,62.4,61.5,-100.00,WNW,288,0.0,1.0,97,0.03,,,0.52,79.0,meteohub,2013-06-26 00:54:00,
2013-06-25 18:00:00,62.4,61.5,-100.00,WNW,288,0.0,0.0,97,0.03,,,0.52,77.0,meteohub,2013-06-26 01:00:00,
2013-06-25 18:06:00,62.4,61.5,-100.00,WNW,288,0.0,0.0,97,0.03,,,0.52,81.0,meteohub,2013-06-26 01:06:00,
2013-06-25 18:12:00,62.4,61.5,-100.00,WNW,288,0.0,0.0,97,0.03,,,0.53,58.0,meteohub,2013-06-26 01:12:00,
2013-06-25 18:17:00,62.2,61.3,-100.00,WNW,288,0.0,0.0,97,0.03,,,0.53,65.0,meteohub,2013-06-26 01:17:00,
2013-06-25 18:22:00,62.2,61.3,-100.00,WNW,288,0.0,0.0,97,0.03,,,0.53,56.0,meteohub,2013-06-26 01:22:00,
2013-06-25 18:27:00,62.2,61.3,-100.00,WNW,288,0.0,0.0,97,0.03,,,0.53,51.0,meteohub,2013-06-26 01:27:00,
2013-06-25 18:32:00,62.2,61.3,-100.00,WNW,288,0.0,0.0,97,0.03,,,0.54,54.0,meteohub,2013-06-26 01:32:00,
2013-06-25 18:37:00,62.2,61.3,-100.00,WNW,288,0.0,0.0,97,0.03,,,0.54,56.0,meteohub,2013-06-26 01:37:00,
2013-06-25 18:42:00,62.2,61.3,-100.00,WNW,288,0.0,0.0,97,0.03,,,0.55,65.0,meteohub,2013-06-26 01:42:00,
2013-06-25 18:47:00,62.2,61.3,-100.00,WNW,288,0.0,0.0,97,0.03,,,0.55,65.0,meteohub,2013-06-26 01:47:00,
2013-06-25 18:52:00,62.1,61.2,-100.00,WNW,288,0.0,1.0,97,0.03,,,0.55,86.0,meteohub,2013-06-26 01:52:00,
2013-06-25 18:57:00,61.9,61.0,-100.00,WNW,287,2.0,2.0,97,0.03,,,0.55,69.0,meteohub,2013-06-26 01:57:00,
2013-06-25 19:02:00,61.7,60.8,-100.00,WNW,287,0.0,2.0,97,0.02,,,0.55,54.0,meteohub,2013-06-26 02:02:00,
2013-06-25 19:07:00,61.5,60.6,-100.00,WNW,287,0.0,2.0,97,0.02,,,0.55,56.0,meteohub,2013-06-26 02:07:00,
2013-06-25 19:12:00,61.5,60.6,-100.00,WNW,287,0.0,2.0,97,0.03,,,0.56,56.0,meteohub,2013-06-26 02:12:00,
2013-06-25 19:17:00,61.5,60.6,-100.00,WNW,287,0.0,2.0,97,0.03,,,0.56,46.0,meteohub,2013-06-26 02:17:00,
2013-06-25 19:22:00,61.5,60.6,-100.00,WNW,287,0.0,2.0,97,0.03,,,0.56,30.0,meteohub,2013-06-26 02:22:00,
2013-06-25 19:27:00,61.9,61.0,-100.00,WNW,287,0.0,2.0,97,0.02,,,0.56,42.0,meteohub,2013-06-26 02:27:00,
2013-06-25 19:32:00,62.1,61.2,-100.00,WNW,287,0.0,0.0,97,0.02,,,0.57,53.0,meteohub,2013-06-26 02:32:00,
2013-06-25 19:37:00,62.2,61.3,-100.00,WNW,287,0.0,1.0,97,0.03,,,0.57,30.0,meteohub,2013-06-26 02:37:00,
2013-06-25 19:43:00,62.1,61.2,-100.00,WNW,287,0.0,1.0,97,0.03,,,0.57,18.0,meteohub,2013-06-26 02:43:00,
2013-06-25 19:49:00,62.1,61.2,-100.00,WNW,287,0.0,0.0,97,0.02,,,0.57,16.0,meteohub,2013-06-26 02:49:00,
2013-06-25 19:55:00,61.9,61.0,-100.00,WNW,287,0.0,0.0,97,0.03,,,0.58,11.0,meteohub,2013-06-26 02:55:00,
2013-06-25 20:01:00,61.9,61.0,-100.00,WNW,287,0.0,1.0,97,0.03,,,0.58,14.0,meteohub,2013-06-26 03:01:00,
2013-06-25 20:07:00,61.9,61.0,-100.00,WNW,287,0.0,1.0,97,0.03,,,0.58,14.0,meteohub,2013-06-26 03:07:00,
2013-06-25 20:12:00,61.9,61.0,-100.00,WNW,287,0.0,1.0,97,0.02,,,0.58,11.0,meteohub,2013-06-26 03:12:00,
2013-06-25 20:17:00,61.7,60.8,-100.00,WNW,287,0.0,1.0,97,0.02,,,0.59,7.0,meteohub,2013-06-26 03:17:00,
2013-06-25 20:22:00,61.5,60.6,-100.00,WNW,287,0.0,1.0,97,0.03,,,0.59,5.0,meteohub,2013-06-26 03:22:00,
2013-06-25 20:28:00,61.3,60.4,-100.00,WNW,287,1.0,1.0,97,0.03,,,0.59,0.0,meteohub,2013-06-26 03:28:00,
2013-06-25 20:34:00,61.3,60.4,-100.00,WNW,287,0.0,2.0,97,0.02,,,0.59,0.0,meteohub,2013-06-26 03:34:00,
2013-06-25 20:40:00,61.2,60.3,-100.00,WNW,287,0.0,2.0,97,0.02,,,0.59,0.0,meteohub,2013-06-26 03:40:00,
2013-06-25 20:47:00,61.2,60.3,-100.00,WNW,287,0.0,2.0,97,0.03,,,0.60,0.0,meteohub,2013-06-26 03:47:00,
2013-06-25 20:52:00,61.2,60.3,-100.00,WNW,287,0.0,2.0,97,0.03,,,0.60,0.0,meteohub,2013-06-26 03:52:00,
2013-06-25 20:57:00,61.2,60.3,-100.00,WNW,287,0.0,1.0,97,0.02,,,0.60,0.0,meteohub,2013-06-26 03:57:00,
2013-06-25 21:01:00,61.2,60.3,-100.00,WNW,287,0.0,1.0,97,0.02,,,0.60,0.0,meteohub,2013-06-26 04:01:00,
2013-06-25 21:02:00,61.0,60.1,-100.00,WNW,287,0.0,1.0,97,0.02,,,0.60,0.0,meteohub,2013-06-26 04:02:00,
2013-06-25 21:03:00,61.0,60.1,-100.00,WNW,287,0.0,1.0,97,0.02,,,0.60,0.0,meteohub,2013-06-26 04:03:00,
2013-06-25 21:07:00,61.0,60.1,-100.00,WNW,287,0.0,1.0,97,0.02,,,0.60,0.0,meteohub,2013-06-26 04:07:00,
2013-06-25 21:11:00,61.0,60.1,-100.00,WNW,287,0.0,0.0,97,0.03,,,0.60,0.0,meteohub,2013-06-26 04:11:00,
2013-06-25 21:17:00,61.3,60.4,-100.00,WNW,287,0.0,0.0,97,0.03,,,0.61,0.0,meteohub,2013-06-26 04:17:00,
2013-06-25 21:22:00,61.2,60.3,-100.00,WNW,287,0.0,0.0,97,0.02,,,0.61,0.0,meteohub,2013-06-26 04:22:00,
2013-06-25 21:27:00,61.2,60.3,-100.00,WNW,287,0.0,0.0,97,0.02,,,0.61,0.0,meteohub,2013-06-26 04:27:00,
2013-06-25 21:32:00,61.2,60.3,-100.00,WNW,287,0.0,0.0,97,0.02,,,0.61,0.0,meteohub,2013-06-26 04:32:00,
2013-06-25 21:37:00,61.0,60.1,-100.00,WNW,287,0.0,0.0,97,0.02,,,0.61,0.0,meteohub,2013-06-26 04:37:00,
2013-06-25 21:42:00,61.0,60.1,-100.00,WNW,287,0.0,0.0,97,0.02,,,0.62,0.0,meteohub,2013-06-26 04:42:00,
2013-06-25 21:47:00,61.0,60.1,-100.00,WNW,287,0.0,0.0,97,0.02,,,0.62,0.0,meteohub,2013-06-26 04:47:00,
2013-06-25 21:52:00,61.0,60.1,-100.00,WNW,287,0.0,0.0,97,0.02,,,0.62,0.0,meteohub,2013-06-26 04:52:00,
2013-06-25 21:57:00,60.8,60.3,-100.00,WNW,287,0.0,0.0,98,0.02,,,0.62,0.0,meteohub,2013-06-26 04:57:00,
2013-06-25 22:02:00,61.0,60.4,-100.00,WNW,287,0.0,0.0,98,0.02,,,0.62,0.0,meteohub,2013-06-26 05:02:00,
2013-06-25 22:07:00,60.8,60.3,-100.00,WNW,287,0.0,0.0,98,0.02,,,0.62,0.0,meteohub,2013-06-26 05:07:00,
2013-06-25 22:13:00,61.0,60.4,-100.00,WNW,287,0.0,0.0,98,0.02,,,0.62,0.0,meteohub,2013-06-26 05:13:00,
2013-06-25 22:19:00,61.0,60.4,-100.00,WNW,287,0.0,0.0,98,0.02,,,0.63,0.0,meteohub,2013-06-26 05:19:00,
2013-06-25 22:25:00,60.8,60.3,-100.00,WNW,287,0.0,0.0,98,0.02,,,0.63,0.0,meteohub,2013-06-26 05:25:00,
2013-06-25 22:31:00,60.8,60.3,-100.00,WNW,287,0.0,0.0,98,0.03,,,0.63,0.0,meteohub,2013-06-26 05:31:00,
2013-06-25 22:37:00,60.8,60.3,-100.00,WNW,287,0.0,0.0,98,0.03,,,0.63,0.0,meteohub,2013-06-26 05:37:00,
2013-06-25 22:42:00,60.8,59.9,-100.00,WNW,287,0.0,0.0,97,0.03,,,0.64,0.0,meteohub,2013-06-26 05:42:00,
2013-06-25 22:47:00,60.8,59.9,-100.00,WNW,287,0.0,0.0,97,0.02,,,0.64,0.0,meteohub,2013-06-26 05:47:00,
2013-06-25 22:52:00,60.6,59.7,-100.00,WNW,287,0.0,0.0,97,0.02,,,0.64,0.0,meteohub,2013-06-26 05:52:00,
2013-06-25 22:58:00,60.8,60.3,-100.00,WNW,287,0.0,0.0,98,0.02,,,0.64,0.0,meteohub,2013-06-26 05:58:00,
2013-06-25 23:04:00,60.6,59.7,-100.00,WNW,287,0.0,0.0,97,0.02,,,0.65,0.0,meteohub,2013-06-26 06:04:00,
2013-06-25 23:10:00,60.8,60.3,-100.00,WNW,287,0.0,0.0,98,0.02,,,0.65,0.0,meteohub,2013-06-26 06:10:00,
2013-06-25 23:16:00,60.6,60.1,-100.00,WNW,287,0.0,0.0,98,0.02,,,0.65,0.0,meteohub,2013-06-26 06:16:00,
2013-06-25 23:22:00,60.6,59.7,-100.00,WNW,287,0.0,0.0,97,0.02,,,0.65,0.0,meteohub,2013-06-26 06:22:00,
2013-06-25 23:27:00,60.6,60.1,-100.00,WNW,287,0.0,0.0,98,0.02,,,0.65,0.0,meteohub,2013-06-26 06:27:00,
2013-06-25 23:32:00,60.8,60.3,-100.00,WNW,287,0.0,0.0,98,0.01,,,0.65,0.0,meteohub,2013-06-26 06:32:00,
2013-06-25 23:37:00,61.0,60.4,-100.00,WNW,287,0.0,0.0,98,0.01,,,0.66,0.0,meteohub,2013-06-26 06:37:00,
2013-06-25 23:42:00,61.0,60.4,-100.00,WNW,287,0.0,0.0,98,0.02,,,0.66,0.0,meteohub,2013-06-26 06:42:00,
2013-06-25 23:47:00,61.0,60.4,-100.00,WNW,287,0.0,0.0,98,0.02,,,0.66,0.0,meteohub,2013-06-26 06:47:00,
2013-06-25 23:52:00,61.0,60.4,-100.00,WNW,287,0.0,0.0,98,0.02,,,0.66,0.0,meteohub,2013-06-26 06:52:00,
2013-06-25 23:57:00,60.8,60.3,-100.00,WNW,287,0.0,0.0,98,0.02,,,0.66,0.0,meteohub,2013-06-26 06:57:00,